When you browse on this site, cookies collect data to enhance your experience and personalize the content and advertising you see.
Visit our Privacy Policy to learn more. By continuing to use the site, you agree to this use of cookies and data.
  • In Hungary
  • List of Countries
  • For 7 days
  • Water Temperature
  • Satellite Maps
  • Weather Map
  • News
  • Weather Widgets
  • user-avatar
    Login

    Hourly Weather Valencia

    Today, 21 March, Thursday

    Time Temperature Precipitation Wind Pressure Humidity
    00:00 +8°C° 0 mm 3 mps 769 mmHg 76%
    01:00 +8°C° 0 mm 3 mps 769 mmHg 76%
    02:00 +8°C° 0 mm 3 mps 769 mmHg 75%
    03:00 +7°C° 0 mm 3 mps 769 mmHg 75%
    04:00 +7°C° 0 mm 3 mps 769 mmHg 73%
    05:00 +7°C° 0 mm 3 mps 769 mmHg 70%
    06:00 +7°C° 0 mm 3 mps 769 mmHg 68%
    07:00 +9°C° 0 mm 3 mps 769 mmHg 60%
    08:00 +11°C° 0 mm 3 mps 769 mmHg 52%
    09:00 +14°C° 0 mm 3 mps 769 mmHg 44%
    10:00 +15°C° 0 mm 4 mps 769 mmHg 40%
    11:00 +16°C° 0 mm 5 mps 769 mmHg 36%
    12:00 +17°C° 0 mm 6 mps 768 mmHg 33%
    13:00 +16°C° 0 mm 6 mps 768 mmHg 34%
    14:00 +16°C° 0 mm 6 mps 768 mmHg 35%
    15:00 +16°C° 0 mm 6 mps 767 mmHg 37%
    16:00 +14°C° 0 mm 5 mps 767 mmHg 43%
    17:00 +13°C° 0 mm 4 mps 767 mmHg 50%
    18:00 +12°C° 0 mm 3 mps 767 mmHg 57%
    19:00 +11°C° 0 mm 3 mps 768 mmHg 58%
    20:00 +10°C° 0 mm 2 mps 768 mmHg 60%
    21:00 +9°C° 0 mm 2 mps 769 mmHg 62%
    22:00 +9°C° 0 mm 2 mps 769 mmHg 61%
    23:00 +9°C° 0 mm 3 mps 769 mmHg 60%

    Tomorrow, 22 March, Friday

    Time Temperature Precipitation Wind Pressure Humidity
    00:00 +8°C° 0 mm 3 mps 769 mmHg 59%
    01:00 +8°C° 0 mm 3 mps 769 mmHg 58%
    02:00 +8°C° 0 mm 3 mps 769 mmHg 57%
    03:00 +8°C° 0 mm 3 mps 768 mmHg 55%
    04:00 +8°C° 0 mm 3 mps 768 mmHg 55%
    05:00 +8°C° 0 mm 3 mps 768 mmHg 54%
    06:00 +8°C° 0 mm 3 mps 768 mmHg 53%
    07:00 +10°C° 0 mm 3 mps 768 mmHg 47%
    08:00 +12°C° 0 mm 3 mps 768 mmHg 42%
    09:00 +14°C° 0 mm 3 mps 768 mmHg 37%
    10:00 +15°C° 0 mm 4 mps 768 mmHg 37%
    11:00 +16°C° 0 mm 5 mps 768 mmHg 37%
    12:00 +17°C° 0 mm 5 mps 768 mmHg 37%
    13:00 +17°C° 0 mm 5 mps 768 mmHg 40%
    14:00 +17°C° 0 mm 5 mps 767 mmHg 42%
    15:00 +17°C° 0 mm 5 mps 767 mmHg 45%
    16:00 +17°C° 0 mm 4 mps 767 mmHg 51%
    17:00 +16°C° 0 mm 3 mps 767 mmHg 57%
    18:00 +14°C° 0 mm 2 mps 767 mmHg 63%
    19:00 +13°C° 0 mm 2 mps 768 mmHg 66%
    20:00 +13°C° 0 mm 2 mps 768 mmHg 68%
    21:00 +12°C° 0 mm 2 mps 769 mmHg 71%
    22:00 +10°C° 0 mm 2 mps 769 mmHg 69%
    23:00 +10°C° 0 mm 2 mps 768 mmHg 67%

    Day after tomorrow, 23 March, Saturday

    Time Temperature Precipitation Wind Pressure Humidity
    00:00 +10°C° 0 mm 2 mps 768 mmHg 65%
    01:00 +10°C° 0 mm 2 mps 768 mmHg 63%
    02:00 +10°C° 0 mm 2 mps 768 mmHg 61%
    03:00 +10°C° 0 mm 2 mps 767 mmHg 59%
    04:00 +10°C° 0 mm 2 mps 767 mmHg 58%
    05:00 +10°C° 0 mm 2 mps 767 mmHg 57%
    06:00 +9°C° 0 mm 2 mps 767 mmHg 55%
    07:00 +13°C° 0 mm 2 mps 767 mmHg 49%
    08:00 +15°C° 0 mm 2 mps 767 mmHg 43%
    09:00 +17°C° 0 mm 2 mps 767 mmHg 37%
    10:00 +18°C° 0 mm 3 mps 767 mmHg 36%
    11:00 +19°C° 0 mm 3 mps 767 mmHg 34%
    12:00 +20°C° 0 mm 4 mps 766 mmHg 33%
    13:00 +20°C° 0 mm 4 mps 766 mmHg 34%
    14:00 +20°C° 0 mm 4 mps 765 mmHg 35%
    15:00 +20°C° 0 mm 4 mps 765 mmHg 35%
    16:00 +18°C° 0 mm 3 mps 765 mmHg 42%
    17:00 +17°C° 0 mm 3 mps 765 mmHg 48%
    18:00 +15°C° 0 mm 2 mps 765 mmHg 55%
    19:00 +14°C° 0 mm 2 mps 765 mmHg 58%
    20:00 +13°C° 0 mm 2 mps 766 mmHg 62%
    21:00 +12°C° 0 mm 1 mps 766 mmHg 65%
    22:00 +12°C° 0 mm 2 mps 766 mmHg 63%
    23:00 +12°C° 0 mm 2 mps 766 mmHg 61%

    24 March, Sunday

    Time Temperature Precipitation Wind Pressure Humidity
    00:00 +12°C° 0 mm 2 mps 766 mmHg 60%
    01:00 +12°C° 0 mm 2 mps 765 mmHg 59%
    02:00 +10°C° 0 mm 2 mps 765 mmHg 59%
    03:00 +10°C° 0 mm 2 mps 765 mmHg 58%
    04:00 +10°C° 0 mm 2 mps 765 mmHg 59%
    05:00 +10°C° 0 mm 2 mps 765 mmHg 60%
    06:00 +10°C° 0 mm 2 mps 765 mmHg 60%
    07:00 +13°C° 0 mm 2 mps 765 mmHg 57%
    08:00 +14°C° 0 mm 3 mps 765 mmHg 53%
    09:00 +17°C° 0 mm 3 mps 765 mmHg 49%
    10:00 +18°C° 0 mm 4 mps 764 mmHg 48%
    11:00 +19°C° 0 mm 5 mps 764 mmHg 47%
    12:00 +20°C° 0 mm 5 mps 764 mmHg 46%
    13:00 +20°C° 0 mm 6 mps 764 mmHg 48%
    14:00 +20°C° 0 mm 6 mps 763 mmHg 49%
    15:00 +19°C° 0 mm 6 mps 763 mmHg 51%
    16:00 +17°C° 0 mm 5 mps 763 mmHg 58%
    17:00 +17°C° 0 mm 4 mps 763 mmHg 65%
    18:00 +14°C° 0 mm 3 mps 763 mmHg 73%
    19:00 +13°C° 0 mm 3 mps 763 mmHg 78%
    20:00 +13°C° 0 mm 3 mps 764 mmHg 83%
    21:00 +12°C° 0 mm 3 mps 764 mmHg 88%
    22:00 +12°C° 0 mm 3 mps 764 mmHg 84%
    23:00 +12°C° 0 mm 3 mps 764 mmHg 81%

    25 March, Monday

    Time Temperature Precipitation Wind Pressure Humidity
    00:00 +13°C° 0 mm 3 mps 764 mmHg 78%
    01:00 +13°C° 0.1 mm 3 mps 764 mmHg 77%
    02:00 +13°C° 0.1 mm 3 mps 763 mmHg 77%
    03:00 +13°C° 0.1 mm 3 mps 763 mmHg 76%
    04:00 +13°C° 0.1 mm 4 mps 763 mmHg 78%
    05:00 +13°C° 0.1 mm 4 mps 763 mmHg 80%
    06:00 +12°C° 0.1 mm 4 mps 763 mmHg 82%
    07:00 +13°C° 0.1 mm 4 mps 763 mmHg 80%
    08:00 +14°C° 0.1 mm 5 mps 763 mmHg 77%
    09:00 +14°C° 0.1 mm 5 mps 764 mmHg 75%
    10:00 +15°C° 0.1 mm 5 mps 764 mmHg 72%
    11:00 +16°C° 0.1 mm 5 mps 763 mmHg 69%
    12:00 +16°C° 0.1 mm 5 mps 763 mmHg 66%
    13:00 +16°C° 0 mm 5 mps 763 mmHg 64%
    14:00 +17°C° 0 mm 5 mps 762 mmHg 63%
    15:00 +17°C° 0 mm 5 mps 762 mmHg 61%
    16:00 +17°C° 0 mm 4 mps 762 mmHg 65%
    17:00 +16°C° 0 mm 3 mps 762 mmHg 69%
    18:00 +15°C° 0 mm 2 mps 762 mmHg 73%
    19:00 +14°C° 0 mm 2 mps 762 mmHg 77%
    20:00 +13°C° 0 mm 2 mps 763 mmHg 81%
    21:00 +12°C° 0 mm 1 mps 763 mmHg 85%
    22:00 +12°C° 0 mm 2 mps 763 mmHg 82%
    23:00 +12°C° 0 mm 2 mps 763 mmHg 80%

    26 March, Tuesday

    Time Temperature Precipitation Wind Pressure Humidity
    00:00 +12°C° 0 mm 2 mps 763 mmHg 77%
    01:00 +10°C° 0 mm 2 mps 763 mmHg 75%
    02:00 +10°C° 0 mm 2 mps 763 mmHg 73%
    03:00 +10°C° 0 mm 2 mps 762 mmHg 70%
    04:00 +10°C° 0 mm 2 mps 762 mmHg 69%
    05:00 +10°C° 0 mm 2 mps 762 mmHg 68%
    06:00 +10°C° 0 mm 2 mps 762 mmHg 67%
    07:00 +13°C° 0 mm 2 mps 762 mmHg 62%
    08:00 +15°C° 0 mm 2 mps 762 mmHg 58%
    09:00 +17°C° 0 mm 2 mps 762 mmHg 53%
    10:00 +18°C° 0 mm 3 mps 762 mmHg 50%
    11:00 +19°C° 0 mm 4 mps 762 mmHg 47%
    12:00 +20°C° 0 mm 5 mps 762 mmHg 44%
    13:00 +20°C° 0 mm 5 mps 762 mmHg 44%
    14:00 +20°C° 0 mm 6 mps 761 mmHg 44%
    15:00 +20°C° 0 mm 6 mps 761 mmHg 44%
    16:00 +17°C° 0 mm 5 mps 761 mmHg 49%
    17:00 +17°C° 0 mm 4 mps 762 mmHg 55%
    18:00 +16°C° 0 mm 3 mps 762 mmHg 60%
    19:00 +14°C° 0 mm 3 mps 762 mmHg 64%
    20:00 +14°C° 0 mm 2 mps 763 mmHg 68%
    21:00 +14°C° 0 mm 2 mps 764 mmHg 72%
    22:00 +13°C° 0 mm 2 mps 764 mmHg 71%
    23:00 +12°C° 0 mm 3 mps 764 mmHg 70%
    Show more